Погода в Белогорске

Россия / Кемеровская область (Кузбасс)     55°01′09″N   88°29′24″E
темп.,
°C
ветер,
м/с
пор.,
м/с
влажн.,
%
обл.,
%
осадки,
мм/ч
давл.,
гПа
погр.,
м
28 июня, вт
вт2801:00+15ююз61796100 4.0 9961160
04:00+15зюз41198100 2.3 9961057
07:00+10зюз51298100 3.8 10021260
10:00+10зюз51193100 0.4 1006920
13:00+13зюз6106964 0.6 10071242
16:00+15зюз596330 0.2 10081310
19:00+14зюз48707 0.4 10081135
22:00+9ююз229619 0.0 100924
29 июня, ср
ср2901:00+7ююв229878 0.0 101030
04:00+7ю2296100 0.0 100927
07:00+11ююв237784 0.0 1008133
10:00+17ююз23480 0.0 10061388
13:00+21зюз35360 0.0 10041843
16:00+22юз35325 0.0 10021708
19:00+21ююз254717 0.0 1000719
22:00+15юв2372100 0.0 99943
30 июня, чт
чт3001:00+15зюз3871100 0.0 999238
04:00+13ююв227999 0.2 99737
07:00+16ююз396998 0.3 998698
10:00+13юз3992100 0.1 1001850
13:00+15юз5949100 0.2 10021009
16:00+16зюз474711 0.0 10031276
19:00+15юз455615 0.0 10041275
22:00+9ююз23880 0.0 100549
1 июля, пт
пт101:00+7ю23920 0.0 100651
04:00+7ююв229366 0.0 100634
07:00+12ююз2372100 0.0 1005166
10:00+16юз475120 0.0 10041789
13:00+18зюз575096 0.0 10031907
16:00+18зюз574748 0.1 10031943
19:00+16з56540 0.1 10041354
22:00+8зюз22880 0.0 100638
2 июля, сб
сб201:00+7ю23974 0.0 100759
04:00+6ю249744 0.0 100774
07:00+10юз2985100 0.1 1006693
10:00+13юз486376 0.3 10061497
13:00+14зюз585792 0.6 10061673
16:00+15юз585172 0.4 10051823
19:00+13юз387157 0.4 1005781
22:00+8ююз2295100 0.1 100627